Location: Gouy
(50.0008°N, 3.2556°E)
Time: 05:52:26
(UTC+00:00)

Cosmos 2151 Rocket - Pass Details

Date: 22 August 2024
Orbit: 615 x 637 km, 82.5° (Epoch: 07 September)

Event Time Altitude Azimuth Distance (km) Brightness Sun altitude
Rises 02:40:32 0° 136° (SE) 2,908 7.0 -18.0°
Reaches altitude 10° 02:43:49 10° 110° (ESE) 2,012 6.5 -17.6°
Maximum altitude 02:45:55 13° 81° (E) 1,808 6.7 -17.3°
Drops below altitude 10° 02:48:02 10° 53° (NE) 2,026 7.5 -17.1°
Sets 02:51:22 0° 27° (NNE) 2,946 8.4 -16.7°
